Weather History for KOWA - April, 2013

Change the Weather History Date:

Wednesday, April 3, 2013

  Actual Average Record
Temperature  
Mean Temperature 36 °F -  
Max Temperature 48 °F 51 °F 80 °F (1981)
Min Temperature 24 °F 29 °F 8 °F (1975)
Degree Days  
Heating Degree Days 29    
Moisture  
Dew Point 22 °F    
Average Humidity 54    
Maximum Humidity 80    
Minimum Humidity 33    
Precipitation  
Precipitation 0.00 in - - ()
Sea Level Pressure  
Sea Level Pressure 30.29 in    
Wind  
Wind Speed 6 mph (SSE)    
Max Wind Speed 21 mph    
Max Gust Speed 26 mph    
Visibility 10 miles    
Events      
Averages and records for this station are not official NWS values.
T = Trace of Precipitation, MM = Missing Value Source: NWS Daily Summary

Daily Weather History Graph

Daily Weather History Graph

Search for Another Location

Airport or City:

Trip Planner

Search our weather history database for the weather conditions in past years. The results will help you decide how hot, cold, wet, or windy it might be!

Date:

Astronomy

Apr. 03, 2013 Rise Set
Actual Time 6:50 AM CDT 7:42 PM CDT
Civil Twilight 6:20 AM CDT 8:12 PM CDT
Nautical Twilight 5:46 AM CDT 8:47 PM CDT
Astronomical Twilight 5:09 AM CDT 9:23 PM CDT
Moon 2:45 AM CDT (4/3) 12:42 PM CDT (4/3)
Length of Visible Light 13h 51m
Length of Day
12h 52m
Last Quarter, 44% of the Moon is Illuminated
Apr 3
Last Quarter
Apr 10
New
Apr 18
First Quarter
Apr 25
Full
May 2
Last Quarter

Hourly Weather History & Observations

Time (CDT) Temp. Windchill Dew Point Humidity Pressure Visibility Wind Dir Wind Speed Gust Speed Precip Events Conditions
12:13 AM 30.2 °F - 21.2 °F 69% 30.34 in 10.0 mi Calm Calm - N/A   Clear
12:34 AM 30.2 °F - 21.2 °F 69% 30.34 in 10.0 mi Calm Calm - N/A   Clear
12:53 AM 30.2 °F - 21.2 °F 69% 30.34 in 10.0 mi Calm Calm - N/A   Clear
1:13 AM 30.2 °F - 19.4 °F 64% 30.34 in 10.0 mi Calm Calm - N/A   Clear
1:33 AM 30.2 °F - 21.2 °F 69% 30.35 in 10.0 mi Calm Calm - N/A   Clear
1:53 AM 30.2 °F - 21.2 °F 69% 30.35 in 10.0 mi Calm Calm - N/A   Clear
2:14 AM 30.2 °F - 19.4 °F 64% 30.35 in 10.0 mi Calm Calm - N/A   Clear
2:33 AM 28.4 °F - 19.4 °F 69% 30.35 in 10.0 mi Calm Calm - N/A   Clear
2:53 AM 28.4 °F - 21.2 °F 74% 30.35 in 10.0 mi Calm Calm - N/A   Clear
3:13 AM 28.4 °F - 21.2 °F 74% 30.35 in 10.0 mi Calm Calm - N/A   Clear
3:33 AM 28.4 °F - 21.2 °F 74% 30.35 in 10.0 mi Calm Calm - N/A   Clear
3:53 AM 28.4 °F - 21.2 °F 74% 30.35 in 10.0 mi Calm Calm - N/A   Clear
4:13 AM 26.6 °F - 21.2 °F 80% 30.35 in 10.0 mi Calm Calm - N/A   Clear
4:33 AM 26.6 °F - 19.4 °F 74% 30.35 in 10.0 mi Calm Calm - N/A   Clear
4:53 AM 24.8 °F - 19.4 °F 80% 30.35 in 10.0 mi Calm Calm - N/A   Clear
5:13 AM 26.6 °F - 19.4 °F 74% 30.35 in 10.0 mi Calm Calm - N/A   Clear
5:33 AM 26.6 °F 22.6 °F 19.4 °F 74% 30.36 in 10.0 mi SE 3.5 mph - N/A   Clear
5:54 AM 26.6 °F 22.6 °F 19.4 °F 74% 30.36 in 10.0 mi SE 3.5 mph - N/A   Clear
6:13 AM 26.6 °F 21.2 °F 19.4 °F 74% 30.36 in 10.0 mi SE 4.6 mph - N/A   Clear
6:33 AM 26.6 °F 22.6 °F 19.4 °F 74% 30.36 in 10.0 mi SE 3.5 mph - N/A   Clear
6:53 AM 28.4 °F 23.3 °F 19.4 °F 69% 30.37 in 10.0 mi SE 4.6 mph - N/A   Clear
7:13 AM 28.4 °F 23.3 °F 19.4 °F 69% 30.38 in 10.0 mi SSE 4.6 mph - N/A   Clear
7:33 AM 28.4 °F 23.3 °F 19.4 °F 69% 30.38 in 10.0 mi SSE 4.6 mph - N/A   Clear
7:53 AM 30.2 °F 23.4 °F 21.2 °F 69% 30.39 in 10.0 mi SSE 6.9 mph - N/A   Clear
8:14 AM 33.8 °F 27.7 °F 21.2 °F 60% 30.40 in 10.0 mi South 6.9 mph - N/A   Clear
8:34 AM 33.8 °F 27.7 °F 21.2 °F 60% 30.39 in 10.0 mi SSE 6.9 mph - N/A   Clear
8:53 AM 35.6 °F 29.2 °F 19.4 °F 52% 30.38 in 10.0 mi SSE 8.1 mph - N/A   Clear
9:13 AM 37.4 °F 30.8 °F 17.6 °F 45% 30.38 in 10.0 mi SSE 9.2 mph - N/A   Clear
9:33 AM 37.4 °F 29.8 °F 17.6 °F 45% 30.37 in 10.0 mi SE 11.5 mph - N/A   Clear
9:53 AM 39.2 °F 33.0 °F 15.8 °F 39% 30.35 in 10.0 mi SE 9.2 mph - N/A   Clear
10:13 AM 39.2 °F 31.6 °F 15.8 °F 39% 30.35 in 10.0 mi SSE 12.7 mph - N/A   Clear
10:33 AM 41.0 °F 33.9 °F 15.8 °F 36% 30.34 in 10.0 mi SSE 12.7 mph - N/A   Clear
10:53 AM 41.0 °F 34.3 °F 14.0 °F 33% 30.35 in 10.0 mi SSE 11.5 mph - N/A   Clear
11:13 AM 42.8 °F 38.0 °F 17.6 °F 36% 30.35 in 10.0 mi SSE 8.1 mph - N/A   Clear
11:33 AM 42.8 °F 36.6 °F 17.6 °F 36% 30.34 in 10.0 mi South 11.5 mph - N/A   Clear
11:53 AM 42.8 °F 37.0 °F 15.8 °F 34% 30.33 in 10.0 mi SSE 10.4 mph - N/A   Clear
12:13 PM 42.8 °F 35.4 °F 15.8 °F 34% 30.33 in 10.0 mi SE 15.0 mph - N/A   Clear
12:33 PM 44.6 °F 37.8 °F 17.6 °F 34% 30.33 in 10.0 mi SSE 15.0 mph 18.4 mph N/A   Clear
12:54 PM 44.6 °F 37.8 °F 19.4 °F 37% 30.32 in 10.0 mi SSE 15.0 mph - N/A   Clear
1:13 PM 44.6 °F 37.2 °F 19.4 °F 37% 30.32 in 10.0 mi SSE 17.3 mph - N/A   Clear
1:33 PM 44.6 °F 37.8 °F 19.4 °F 37% 30.31 in 10.0 mi South 15.0 mph 21.9 mph N/A   Clear
1:54 PM 46.4 °F 39.5 °F 21.2 °F 37% 30.30 in 10.0 mi SSE 17.3 mph 21.9 mph N/A   Clear
2:13 PM 46.4 °F 39.5 °F 21.2 °F 37% 30.29 in 10.0 mi SSE 17.3 mph 25.3 mph N/A   Clear
2:33 PM 46.4 °F 39.5 °F 23.0 °F 40% 30.28 in 10.0 mi SSE 17.3 mph - N/A   Scattered Clouds
2:53 PM 46.4 °F 39.8 °F 24.8 °F 43% 30.28 in 10.0 mi South 16.1 mph 21.9 mph N/A   Scattered Clouds
3:14 PM 48.2 °F - 24.8 °F 40% 30.27 in 10.0 mi South 17.3 mph 24.2 mph N/A   Scattered Clouds
3:33 PM 48.2 °F - 26.6 °F 43% 30.26 in 10.0 mi South 20.7 mph 25.3 mph N/A   Clear
3:54 PM 48.2 °F - 24.8 °F 40% 30.25 in 10.0 mi South 13.8 mph 23.0 mph N/A   Clear
4:14 PM 48.2 °F - 24.8 °F 40% 30.24 in 10.0 mi South 16.1 mph 25.3 mph N/A   Clear
4:33 PM 48.2 °F - 24.8 °F 40% 30.23 in 10.0 mi South 16.1 mph 24.2 mph N/A   Clear
4:54 PM 48.2 °F - 24.8 °F 40% 30.22 in 10.0 mi South 16.1 mph 24.2 mph N/A   Clear
5:14 PM 48.2 °F - 26.6 °F 43% 30.21 in 10.0 mi South 18.4 mph 25.3 mph N/A   Clear
5:34 PM 48.2 °F - 26.6 °F 43% 30.21 in 10.0 mi South 15.0 mph 21.9 mph N/A   Clear
5:53 PM 48.2 °F - 26.6 °F 43% 30.21 in 10.0 mi South 16.1 mph 25.3 mph N/A   Clear
6:13 PM 48.2 °F - 26.6 °F 43% 30.20 in 10.0 mi South 17.3 mph 21.9 mph N/A   Clear
6:34 PM 48.2 °F - 28.4 °F 46% 30.20 in 10.0 mi South 10.4 mph 18.4 mph N/A   Clear
6:53 PM 48.2 °F - 28.4 °F 46% 30.20 in 10.0 mi South 13.8 mph - N/A   Clear
7:13 PM 46.4 °F 40.7 °F 28.4 °F 50% 30.19 in 10.0 mi South 12.7 mph 16.1 mph N/A   Clear
7:34 PM 46.4 °F 41.5 °F 28.4 °F 50% 30.18 in 10.0 mi South 10.4 mph 16.1 mph N/A   Clear
7:53 PM 44.6 °F 38.4 °F 28.4 °F 53% 30.17 in 10.0 mi South 12.7 mph - N/A   Clear
8:13 PM 44.6 °F 38.4 °F 28.4 °F 53% 30.17 in 10.0 mi South 12.7 mph 17.3 mph N/A   Clear
8:33 PM 44.6 °F 38.1 °F 26.6 °F 49% 30.17 in 10.0 mi South 13.8 mph 19.6 mph N/A   Clear
8:53 PM 44.6 °F 37.4 °F 26.6 °F 49% 30.17 in 10.0 mi South 16.1 mph 20.7 mph N/A   Clear
9:13 PM 44.6 °F 37.2 °F 26.6 °F 49% 30.17 in 10.0 mi South 17.3 mph 24.2 mph N/A   Clear
9:33 PM 42.8 °F 34.8 °F 26.6 °F 53% 30.16 in 10.0 mi South 17.3 mph 23.0 mph N/A   Clear
9:53 PM 42.8 °F 34.5 °F 26.6 °F 53% 30.15 in 10.0 mi South 18.4 mph 21.9 mph N/A   Clear
10:14 PM 42.8 °F 34.0 °F 26.6 °F 53% 30.14 in 10.0 mi South 20.7 mph 26.5 mph N/A   Clear
10:33 PM 42.8 °F 34.5 °F 26.6 °F 53% 30.14 in 10.0 mi South 18.4 mph - N/A   Clear
10:53 PM 42.8 °F 34.5 °F 26.6 °F 53% 30.14 in 10.0 mi South 18.4 mph 24.2 mph N/A   Clear
11:14 PM 42.8 °F 34.8 °F 26.6 °F 53% 30.13 in 10.0 mi South 17.3 mph 23.0 mph N/A   Clear
11:34 PM 42.8 °F 34.5 °F 26.6 °F 53% 30.12 in 10.0 mi South 18.4 mph 23.0 mph N/A   Clear
11:54 PM 42.8 °F 34.8 °F 26.6 °F 53% 30.11 in 10.0 mi South 17.3 mph - N/A   Clear